Location: Albany
(35.0170°S, 117.8920°E)
Time: 08:59:55
(UTC+08:00)

S-56A Canister/Altair - Pass Details

Date: 25 January 2021
Orbit: 632 x 2501 km, 38.9° (Epoch: 25 February)

Event Time Altitude Azimuth Distance (km) Brightness Sun altitude
Rises 15:13:34 0° 277° (W) 5,801 12.7 48.6°
Reaches altitude 10° 15:17:08 10° 275° (W) 4,945 12.6 47.9°
Maximum altitude 15:32:06 78° 188° (S) 2,544 10.9 44.9°
Drops below altitude 10° 15:46:25 10° 100° (E) 4,750 11.2 42.0°
Sets 15:49:47 0° 99° (E) 5,570 11.5 41.3°
